www.weatherandclimate.eu
Time
(UTC), date
15 17.06
18 17.06
21 17.06
00 18.06
03 18.06
06 18.06
09 18.06
12 18.06
15 18.06
18 18.06
21 18.06
00 19.06
03 19.06
06 19.06
09 19.06
12 19.06
15 19.06
18 19.06
21 19.06
00 20.06
03 20.06
06 20.06
09 20.06
12 20.06
15 20.06
18 20.06
21 20.06
00 21.06
03 21.06
06 21.06
09 21.06
12 21.06
15 21.06
18 21.06
21 21.06
00 22.06
03 22.06
06 22.06
09 22.06
12 22.06
15 22.06
18 22.06
21 22.06
00 23.06
03 23.06
06 23.06
09 23.06
12 23.06
15 23.06
18 23.06
21 23.06
00 24.06
03 24.06
06 24.06
09 24.06
Wind
(dir.,m/s)
Visibility Phenomena Clouds Т
(С)
Тd
(С)
f
(%)
Тe
(С)
Тes
(С)
Comfort P
(hPa)
Po
hPa)
Тmin
(С)
Tmax
(С)
R
(mm)
R24
(mm)
S
(sm)
SE 10-13
{13}
500 m fog,skynotvisible {drizzle} ?/? +12.0 +12.0 100 +8 +8 seasonable 1004.3 982.0
SE 12-16
{16}
200 m slightrainshowers {drizzle}fog ?/? +12.0 +12.0 100 +8 +8 seasonable 1002.6 980.3
SE 12-17
{18}
200 m slightrainshowers {fog}fog ?/? +12.3 +12.3 100 +8 +8 seasonable 1001.5 979.3 +11.8 2
SE 14-18
{19}
200 m slightrainshowers {fog}fog ?/? +12.1 +12.1 100 +8 +8 seasonable 1001.7 979.5
SE 14-18
{22}
500 m fog,skynotvisible ?/? +12.6 +12.6 100 +8 +8 seasonable 999.9 977.8
SE 11-15
{19}
10 km slightrainshowers {fog} 10/10 300 м
[Cb cap]
+13.0 +12.8 99 +9 +9 seasonable 1000.1 978.0
SE 11-15
{16}
50 km slightrainshowers 10/10 300 м
[Cb cap]
+13.2 +13.0 99 +10 +10 warm 1000.3 978.2 +13.2 9
SE 8-10
{15}
10 km slightrainshowers 10/10 300 м
[Cb cap]
+13.0 +12.8 99 +10 +10 warm 1001.8 979.7
SE 8-11
{13}
10 km 8/8 600 м
[Sc]
+12.8 +12.6 99 +10 +10 warm 1001.3 979.2
SE 6
{11}
10 km 8/8 600 м
[Sc]
+12.8 +12.4 97 +10 +10 warm 1001.1 978.9
0 50 km 9/9 600 м
[Sc]
+13.8 +13.2 96 +13 +14 warm 1001.4 979.4 +12.6 0.0
NW 2 50 km 8/8 600 м
[Sc]
+15.8 +13.9 88 +16 +18 warm 1002.2 980.3
S 4 50 km 4/4 600 м
[Cb calv]
+19.2 +14.3 73 +21 +29 comfort 1001.1 979.4
SW 5 50 km 4/3 600 м
[Cb calv Ci fib]
+16.9 +13.4 80 +16 +21 warm 1000.5 978.7
S 5 50 km 6/6 600 м
[Cb calv]
+16.3 +13.1 81 +15 +16 warm 1001.6 979.7 +19.2
S 6 50 km 10/10 600 м
[Cb calv]
+13.6 +13.0 96 +11 +11 warm 1003.4 981.3
S 5
{11}
50 km 4/4 600 м
[Cb calv]
+12.2 +11.3 94 +10 +10 warm 1003.0 980.8
S 4 50 km 8/8 600 м
[Cb calv]
+11.2 +10.5 95 +9 +9 warm 1002.8 980.5
S 5 50 km 10/10 600 м
[Cb calv]
+11.9 +10.9 94 +9 +9 warm 1003.9 981.6 +11.2
S 5 50 km 10/10 600 м
[Sc]
+12.4 +10.6 89 +10 +10 seasonable 1004.1 981.8
SE 6 50 km 10/10 600 м
[Sc]
+12.1 +10.8 92 +9 +9 cool 1004.3 982.1
SE 5 50 km 10/10 600 м
[Sc]
+13.2 +10.8 85 +11 +11 cool 1004.1 981.9
SE 6 10 km slightdrizzle 10/10 600 м
[St]
+11.7 +11.0 95 +9 +9 cool 1004.9 982.6 +14.0 0.0
SE 5 10 km drizzlewithinpasthour 10/10 600 м
[St]
+11.1 +10.5 96 +8 +8 cool 1006.3 983.9
S 4 10 km 10/10 600 м
[Sc]
+10.7 +9.7 94 +8 +8 cool 1006.8 984.4
S 2 10 km 10/10 600 м
[Sc]
+10.4 +9.8 96 +9 +9 seasonable 1006.6 984.1
SW 1 50 km 10/10 600 м
[Sc]
+11.0 +10.0 94 +11 +11 seasonable 1007.7 985.3 +10.4 0.0
SW 2 50 km 8/5 600 м
[Cb calv Ac trans]
+14.0 +11.0 82 +13 +17 seasonable 1007.8 985.6
NW 1 50 km 10/10 600 м
[Sc]
+14.8 +11.8 82 +15 +15 seasonable 1008.1 986.0
W 2 50 km 10/10 600 м
[Sc]
+15.7 +12.4 81 +16 +16 seasonable 1007.9 985.9
SW 1 50 km 10/10 600 м
[Sc]
+14.8 +12.4 86 +15 +15 seasonable 1008.8 986.6 +15.9
SE 6 10 km 10/10 600 м
[St]
+12.1 +11.6 97 +9 +9 cool 1010.2 987.8
SE 4 10 km 10/10 600 м
[Sc]
+11.9 +10.6 92 +10 +10 seasonable 1010.8 988.4
SE 4 10 km 10/10 600 м
[Sc]
+11.8 +10.8 94 +10 +10 seasonable 1010.9 988.4
SE 1 50 km 10/10 600 м
[Sc]
+12.5 +11.5 94 +12 +12 seasonable 1011.6 989.2 +11.8 0.0
NW 1 50 km 10/10 600 м
[Sc]
+14.3 +12.2 87 +15 +15 warm 1012.3 990.0
NW 2 50 km 9/3 600 м
[Sc Ac lent]
+17.6 +13.1 75 +18 +22 warm 1011.7 989.7
S 3 50 km 9/9 600 м
[Sc]
+18.8 +12.7 68 +20 +21 warm 1011.2 989.3
S 3 50 km 3/3 600 м
[Sc]
+18.7 +13.0 69 +20 +21 warm 1010.9 989.0 +20.2
S 1 50 km 1/1 600 м
[Sc]
+16.1 +13.3 83 +17 +17 warm 1012.1 990.0
SE 3 50 km 4/4 600 м
[Sc]
+15.4 +12.3 82 +15 +15 warm 1012.1 989.9
NW 1 50 km 3/3 600 м
[Sc]
+14.4 +13.1 92 +15 +15 warm 1011.6 989.4
NW 3 500 m fog,skynotvisible ?/? +13.8 +13.6 99 +13 +13 seasonable 1012.2 989.9 +13.4
S 2 50 km {fog} 6/6 600 м
[Sc]
+17.7 +14.9 84 +18 +23 warm 1012.1 990.1
SW 3 50 km 4/4 600 м
[Sc]
+21.0 +15.3 70 +25 +34 comfort 1011.1 989.4
SE 7 50 km 3/3 600 м
[Sc]
+19.5 +15.2 76 +21 +23 comfort 1010.1 988.3
SE 6 50 km 1/1 600 м
[Sc]
+16.9 +14.5 86 +16 +17 warm 1010.1 988.1 +23.4
SE 7
{11}
50 km 3/3 600 м
[St]
+14.7 +14.0 96 +13 +13 seasonable 1011.3 989.1
E 4 50 km 6/6 600 м
[Sc]
+14.0 +13.8 99 +12 +12 seasonable 1011.3 989.0
SE 5 50 km 10/10 600 м
[Sc]
+14.0 +13.8 99 +12 +12 seasonable 1010.7 988.5
SE 4 20 km fogwithinpasthour 10/10 200 м
[St]
+14.2 +14.2 100 +13 +13 seasonable 1011.2 989.0 +13.9
E 2 20 km {fog} 8/8 300 м
[St]
+15.9 +14.7 93 +16 +18 warm 1011.1 989.0
SE 5 50 km 3/3 600 м
[Cu Sc]
+18.9 +15.5 81 +20 +27 warm 1010.3 988.5
S 5 50 km 3/3 600 м
[Cu med, cong Ac lent]
+21.1 +16.0 73 +24 +29 comfort 1008.9 987.3
SE 8
{10}
10 km 3/1 600 м
[Sc Ac lent]
+15.3 +14.4 94 +13 +14 seasonable 1009.3 987.3 +21.2
Weather station location Владивосток (Primorsky Krai, Russia): latitude 43.12 longitude 131.90 Height above sea level 188 m.
The archive shows weather in в Владивостоке for the last week. For the whole month and for the previous months, starting from January 2011, you can obtain archived data by selecting the date range of interest from the drop-down list and clicking the "Find!".
*Decide who are you:
Attention! The time in the tables is UTC. To get the local time, you must add an amendment that is equal to 10 h.
See also the weather archive in nearby cities and at nearby weather stations:
Partners of our site:
Column explanations:
  • Wind - indicated wind speed in m/s - average for 10 minutes, gusts in time and between periods (in brackets) and the direction from which the wind blows: N - North, NE - North-East, E - East, SE - South-East , S - South, SW - South-West, W - West, NW - North-West.
  • Visibility - horizontal visibility range in meters or kilometers. When visibility is from 1 to 10 km in the absence of precipitation, haze is usually observed, and when visibility is reduced to 1 km or less, fog is observed. In dry weather, visibility may be reduced by smoke, dust, or haze.
  • Phenomena - atmospheric phenomena observed during the period or in the last hour before the period are indicated; curly brackets indicate phenomena observed between periods (1-3 hours before the period); square brackets indicate hail or ice deposits with their diameter in mm.
  • Clouds - are through slash total and lower clouds in points, and the height of the lower border of the cloud in meters; square brackets contain cloud forms: Ci - Cirrus, Cs - Cirrostratus, Cc - Cirrocumulus, Ac - Altocumulus, As - Altostratus, Sc - Stratocumulus, Ns - Nimbostratus, Cu - Cumulus, Cb - Cumulonimbus. For more information about cloud classification, see the cloud Atlas (PDF).
  • T - Air temperature - temperature measured at a height of 2 m above the ground.
  • Td - Dew point temperature - the temperature is lowered to that contained in the air, the water vapor reaches saturation.
  • f - Relative humidity measured at a height of 2 m above the ground.
  • Te - Effective temperature is the temperature that a seasonally dressed person feels in the shade. Characteristic of stuffy weather. The calculation takes into account the influence of air humidity and wind speed on a person’s heat.
  • Tes - Effective sun temperature - the temperature that a person feels, adjusted for solar heating. Characteristics of the sultry weather. Depends on the height of the sun above the horizon, cloud cover and wind speed. At night, in cloudy weather, as well as in winds of 12 m/s or more, the correction is zero.
  • P - Atmospheric pressure - atmospheric pressure reduced to sea level.
  • Po - Atmospheric pressure - atmospheric pressure measured at the station level.
  • Tmin - Minimum temperature - minimum air temperature at a height of 2 m above the ground.
  • Tmax - Maximum temperature - maximum air temperature at a height of 2 m above the ground.
  • R - Precipitation - The amount of precipitation over a period of time, mm. When you hover over the number, the time period for which the specified amount of precipitation has fallen.
  • R24 - Количество осадков - The amount of precipitation in 24 hours, mm.
  • S - Snow cover - The height of the snow cover. When you hover the mouse over the number - the state of the snow cover and the degree of coverage in points.